• In Hungary
  • List of Countries
  • For 7 days
  • Water Temperature
  • Satellite Maps
  • Weather Map
  • News
  • Weather Widgets
  • user-avatar
    Login

    Hourly Weather Gar

    Today, 23 May, Wednesday

    Time Temperature Precipitation Wind Pressure Humidity
    00:00 +5°C° 0 mm 1 mps 738 mmHg 84%
    01:00 +5°C° 0 mm 1 mps 738 mmHg 84%
    02:00 +5°C° 0 mm 1 mps 738 mmHg 85%
    03:00 +4°C° 0 mm 1 mps 738 mmHg 85%
    04:00 +4°C° 0 mm 1 mps 738 mmHg 82%
    05:00 +5°C° 0 mm 1 mps 738 mmHg 79%
    06:00 +6°C° 0 mm 1 mps 738 mmHg 78%
    07:00 +7°C° 0 mm 1 mps 738 mmHg 70%
    08:00 +8°C° 0 mm 1 mps 738 mmHg 62%
    09:00 +10°C° 0 mm 1 mps 737 mmHg 54%
    10:00 +11°C° 0 mm 1 mps 737 mmHg 50%
    11:00 +11°C° 0 mm 1 mps 737 mmHg 45%
    12:00 +13°C° 0 mm 1 mps 737 mmHg 40%
    13:00 +13°C° 0 mm 1 mps 737 mmHg 37%
    14:00 +14°C° 0 mm 2 mps 737 mmHg 34%
    15:00 +14°C° 0 mm 2 mps 737 mmHg 32%
    16:00 +14°C° 0 mm 2 mps 737 mmHg 32%
    17:00 +14°C° 0 mm 2 mps 737 mmHg 33%
    18:00 +13°C° 0 mm 2 mps 738 mmHg 35%
    19:00 +12°C° 0 mm 2 mps 738 mmHg 40%
    20:00 +10°C° 0 mm 2 mps 739 mmHg 44%
    21:00 +8°C° 0 mm 3 mps 739 mmHg 49%
    22:00 +7°C° 0 mm 3 mps 739 mmHg 56%
    23:00 +5°C° 0 mm 4 mps 740 mmHg 63%

    Tomorrow, 24 May, Thursday

    Time Temperature Precipitation Wind Pressure Humidity
    00:00 +4°C° 0 mm 4 mps 740 mmHg 70%
    01:00 +4°C° 0.1 mm 4 mps 741 mmHg 74%
    02:00 +3°C° 0.1 mm 3 mps 741 mmHg 78%
    03:00 +3°C° 0.1 mm 3 mps 741 mmHg 82%
    04:00 +3°C° 0.5 mm 3 mps 742 mmHg 82%
    05:00 +3°C° 0.5 mm 3 mps 743 mmHg 83%
    06:00 +2°C° 0.5 mm 3 mps 743 mmHg 83%
    07:00 +3°C° 0.6 mm 3 mps 744 mmHg 83%
    08:00 +3°C° 0.6 mm 3 mps 744 mmHg 82%
    09:00 +3°C° 0.6 mm 3 mps 745 mmHg 82%
    10:00 +4°C° 0.1 mm 3 mps 746 mmHg 78%
    11:00 +5°C° 0.1 mm 3 mps 746 mmHg 75%
    12:00 +7°C° 0.1 mm 3 mps 746 mmHg 72%
    13:00 +8°C° 0 mm 3 mps 747 mmHg 66%
    14:00 +8°C° 0 mm 3 mps 747 mmHg 61%
    15:00 +9°C° 0 mm 3 mps 747 mmHg 56%
    16:00 +9°C° 0 mm 3 mps 747 mmHg 54%
    17:00 +9°C° 0 mm 3 mps 748 mmHg 53%
    18:00 +10°C° 0 mm 3 mps 748 mmHg 51%
    19:00 +8°C° 0 mm 3 mps 748 mmHg 58%
    20:00 +5°C° 0 mm 3 mps 748 mmHg 65%
    21:00 +4°C° 0 mm 2 mps 749 mmHg 71%
    22:00 +3°C° 0 mm 2 mps 749 mmHg 72%
    23:00 +2°C° 0 mm 3 mps 748 mmHg 73%

    Day after tomorrow, 25 May, Friday

    Time Temperature Precipitation Wind Pressure Humidity
    00:00 +1°C° 0 mm 3 mps 748 mmHg 73%
    01:00 +1°C° 0 mm 3 mps 748 mmHg 75%
    02:00 +1°C° 0 mm 3 mps 748 mmHg 76%
    03:00 0°C° 0 mm 4 mps 748 mmHg 77%
    04:00 +1°C° 0 mm 4 mps 748 mmHg 74%
    05:00 +3°C° 0 mm 4 mps 747 mmHg 70%
    06:00 +4°C° 0 mm 4 mps 747 mmHg 66%
    07:00 +6°C° 0 mm 5 mps 747 mmHg 61%
    08:00 +8°C° 0 mm 5 mps 746 mmHg 56%
    09:00 +10°C° 0 mm 6 mps 746 mmHg 51%
    10:00 +10°C° 0 mm 6 mps 745 mmHg 51%
    11:00 +11°C° 0 mm 6 mps 745 mmHg 51%
    12:00 +13°C° 0 mm 6 mps 744 mmHg 51%
    13:00 +12°C° 0.2 mm 5 mps 744 mmHg 58%
    14:00 +10°C° 0.2 mm 5 mps 744 mmHg 66%
    15:00 +10°C° 0.2 mm 4 mps 744 mmHg 73%
    16:00 +8°C° 0.3 mm 4 mps 744 mmHg 78%
    17:00 +8°C° 0.3 mm 3 mps 744 mmHg 84%
    18:00 +8°C° 0.3 mm 3 mps 744 mmHg 90%
    19:00 +7°C° 0 mm 2 mps 745 mmHg 92%
    20:00 +7°C° 0 mm 2 mps 745 mmHg 94%
    21:00 +7°C° 0 mm 2 mps 745 mmHg 96%
    22:00 +7°C° 0 mm 2 mps 745 mmHg 97%
    23:00 +7°C° 0 mm 2 mps 745 mmHg 97%

    26 May, Saturday

    Time Temperature Precipitation Wind Pressure Humidity
    00:00 +7°C° 0 mm 2 mps 745 mmHg 98%
    01:00 +6°C° 0 mm 2 mps 746 mmHg 97%
    02:00 +6°C° 0 mm 2 mps 746 mmHg 97%
    03:00 +6°C° 0 mm 2 mps 746 mmHg 96%
    04:00 +5°C° 0 mm 2 mps 747 mmHg 93%
    05:00 +5°C° 0 mm 2 mps 747 mmHg 90%
    06:00 +5°C° 0 mm 2 mps 747 mmHg 87%
    07:00 +5°C° 0 mm 2 mps 747 mmHg 78%
    08:00 +6°C° 0 mm 2 mps 747 mmHg 69%
    09:00 +8°C° 0 mm 1 mps 747 mmHg 60%
    10:00 +9°C° 0 mm 2 mps 747 mmHg 51%
    11:00 +10°C° 0 mm 2 mps 747 mmHg 42%
    12:00 +13°C° 0 mm 2 mps 747 mmHg 32%
    13:00 +13°C° 0 mm 2 mps 747 mmHg 33%
    14:00 +12°C° 0 mm 1 mps 747 mmHg 33%
    15:00 +12°C° 0 mm 1 mps 747 mmHg 34%
    16:00 +11°C° 0.1 mm 1 mps 747 mmHg 42%
    17:00 +10°C° 0.1 mm 1 mps 746 mmHg 50%
    18:00 +9°C° 0.1 mm 1 mps 746 mmHg 57%
    19:00 +8°C° 0.3 mm 1 mps 746 mmHg 64%
    20:00 +7°C° 0.3 mm 1 mps 746 mmHg 71%
    21:00 +6°C° 0.3 mm 1 mps 746 mmHg 77%
    22:00 +6°C° 0.1 mm 1 mps 746 mmHg 80%
    23:00 +5°C° 0.1 mm 1 mps 746 mmHg 83%

    27 May, Sunday

    Time Temperature Precipitation Wind Pressure Humidity
    00:00 +5°C° 0.1 mm 1 mps 746 mmHg 86%
    01:00 +5°C° 0.1 mm 1 mps 746 mmHg 86%
    02:00 +5°C° 0.1 mm 1 mps 746 mmHg 87%
    03:00 +4°C° 0.1 mm 1 mps 745 mmHg 88%
    04:00 +4°C° 0.5 mm 1 mps 746 mmHg 88%
    05:00 +4°C° 0.5 mm 1 mps 746 mmHg 87%
    06:00 +4°C° 0.5 mm 1 mps 746 mmHg 87%
    07:00 +4°C° 0.4 mm 2 mps 746 mmHg 83%
    08:00 +5°C° 0.4 mm 2 mps 746 mmHg 78%
    09:00 +5°C° 0.4 mm 2 mps 747 mmHg 74%
    10:00 +7°C° 0.1 mm 2 mps 747 mmHg 63%
    11:00 +8°C° 0.1 mm 2 mps 747 mmHg 53%
    12:00 +10°C° 0.1 mm 2 mps 748 mmHg 43%
    13:00 +12°C° 0 mm 2 mps 748 mmHg 38%
    14:00 +13°C° 0 mm 2 mps 748 mmHg 33%
    15:00 +14°C° 0 mm 2 mps 748 mmHg 28%
    16:00 +14°C° 0 mm 2 mps 748 mmHg 29%
    17:00 +14°C° 0 mm 2 mps 748 mmHg 30%
    18:00 +14°C° 0 mm 2 mps 749 mmHg 30%
    19:00 +10°C° 0 mm 2 mps 749 mmHg 39%
    20:00 +9°C° 0 mm 1 mps 749 mmHg 48%
    21:00 +6°C° 0 mm 1 mps 749 mmHg 56%
    22:00 +5°C° 0 mm 1 mps 749 mmHg 63%
    23:00 +3°C° 0 mm 2 mps 749 mmHg 70%

    28 May, Monday

    Time Temperature Precipitation Wind Pressure Humidity
    00:00 +3°C° 0 mm 2 mps 749 mmHg 77%
    01:00 +2°C° 0 mm 2 mps 749 mmHg 83%
    02:00 +1°C° 0 mm 2 mps 749 mmHg 88%
    03:00 +1°C° 0 mm 2 mps 749 mmHg 93%
    04:00 +2°C° 0 mm 2 mps 748 mmHg 86%
    05:00 +4°C° 0 mm 2 mps 748 mmHg 78%
    06:00 +5°C° 0 mm 2 mps 748 mmHg 70%
    07:00 +7°C° 0 mm 3 mps 747 mmHg 62%
    08:00 +9°C° 0 mm 3 mps 746 mmHg 53%
    09:00 +10°C° 0 mm 4 mps 745 mmHg 45%
    10:00 +10°C° 0.1 mm 4 mps 745 mmHg 49%
    11:00 +10°C° 0.1 mm 4 mps 744 mmHg 53%
    12:00 +10°C° 0.1 mm 3 mps 743 mmHg 57%
    13:00 +10°C° 1.4 mm 3 mps 742 mmHg 67%
    14:00 +9°C° 1.4 mm 3 mps 741 mmHg 78%
    15:00 +9°C° 1.4 mm 3 mps 740 mmHg 88%
    16:00 +10°C° 0.4 mm 3 mps 739 mmHg 85%
    17:00 +11°C° 0.4 mm 3 mps 739 mmHg 83%
    18:00 +12°C° 0.4 mm 4 mps 738 mmHg 80%
    19:00 +11°C° 0.2 mm 3 mps 737 mmHg 84%
    20:00 +11°C° 0.2 mm 3 mps 737 mmHg 88%
    21:00 +10°C° 0.2 mm 3 mps 736 mmHg 92%
    22:00 +11°C° 0.2 mm 3 mps 735 mmHg 93%
    23:00 +11°C° 0.2 mm 3 mps 734 mmHg 94%
    Show more